timestamp,wind_dir_avg,wind_spd_avg,wind_spd_max_dir,wind_spd_gust,battery_voltage,lat,long
2022-08-27 00:04:01+00:00,227.0,4.37,227.0,4.61,12.49,47.59359,-54.27349
2022-08-27 00:14:01+00:00,220.0,3.83,220.0,4.21,12.49,47.59359,-54.27349
2022-08-27 00:24:01+00:00,224.0,4.09,225.0,4.47,12.49,47.59359,-54.27349
2022-08-27 00:34:01+00:00,226.0,5.12,225.0,5.49,12.49,47.59359,-54.27349
2022-08-27 00:44:01+00:00,228.0,5.09,227.0,5.42,12.49,47.59359,-54.27349
2022-08-27 00:54:01+00:00,233.0,4.67,231.0,5.01,12.49,47.59359,-54.27349
2022-08-27 01:04:01+00:00,242.0,4.51,244.0,4.84,12.49,47.59359,-54.27349
2022-08-27 01:14:00+00:00,219.0,3.45,221.0,4.05,12.41,47.59359,-54.27349
2022-08-27 01:24:00+00:00,222.0,3.43,231.0,4.46,12.41,47.59359,-54.27349
2022-08-27 01:34:00+00:00,234.0,4.13,231.0,4.65,12.41,47.59359,-54.27349
2022-08-27 01:44:00+00:00,230.0,3.48,224.0,4.38,12.41,47.59359,-54.27349
2022-08-27 01:54:00+00:00,229.0,4.53,232.0,5.22,12.41,47.59359,-54.27349
2022-08-27 02:04:00+00:00,240.0,3.23,239.0,4.16,12.41,47.59359,-54.27349
2022-08-27 02:14:00+00:00,233.0,2.3,236.0,2.93,12.41,47.59359,-54.27349
2022-08-27 02:24:00+00:00,219.0,3.42,227.0,4.74,12.41,47.59359,-54.27349
2022-08-27 02:34:00+00:00,221.0,3.59,231.0,4.48,12.41,47.59359,-54.27349
2022-08-27 02:44:00+00:00,228.0,3.83,226.0,4.19,12.41,47.59359,-54.27349
2022-08-27 02:54:00+00:00,216.0,3.27,224.0,4.25,12.41,47.59359,-54.27349
2022-08-27 03:04:00+00:00,219.0,4.58,230.0,5.25,12.41,47.59359,-54.27349
2022-08-27 03:14:00+00:00,256.0,2.13,254.0,2.68,12.49,47.59359,-54.27349
2022-08-27 03:24:00+00:00,235.0,2.46,242.0,3.22,12.49,47.59359,-54.27349
2022-08-27 03:34:00+00:00,237.0,3.7,238.0,4.22,12.49,47.59359,-54.27349
2022-08-27 03:44:00+00:00,245.0,4.02,244.0,4.44,12.49,47.59359,-54.27349
2022-08-27 03:54:00+00:00,236.0,3.41,237.0,3.89,12.49,47.59359,-54.27349
2022-08-27 04:04:00+00:00,225.0,4.18,228.0,4.66,12.49,47.59359,-54.27349
2022-08-27 04:14:01+00:00,230.0,4.16,229.0,4.9,12.49,47.59359,-54.27349
2022-08-27 04:24:01+00:00,231.0,3.8,230.0,4.41,12.49,47.59359,-54.27349
2022-08-27 04:34:01+00:00,220.0,4.59,222.0,5.02,12.49,47.59359,-54.27349
2022-08-27 04:44:01+00:00,218.0,4.85,221.0,5.32,12.49,47.59359,-54.27349
2022-08-27 04:54:01+00:00,222.0,4.51,232.0,5.41,12.49,47.59359,-54.27349
2022-08-27 05:04:01+00:00,222.0,4.31,225.0,5.16,12.49,47.59359,-54.27349
2022-08-27 05:14:00+00:00,221.0,4.51,222.0,4.93,12.41,47.59359,-54.27349
2022-08-27 05:24:00+00:00,220.0,4.49,232.0,5.37,12.41,47.59359,-54.27349
2022-08-27 05:34:00+00:00,223.0,3.67,238.0,4.91,12.41,47.59359,-54.27349
2022-08-27 05:44:00+00:00,229.0,3.41,233.0,3.98,12.41,47.59359,-54.27349
2022-08-27 05:54:00+00:00,230.0,3.43,237.0,4.41,12.41,47.59359,-54.27349
2022-08-27 06:04:00+00:00,249.0,2.77,248.0,3.06,12.41,47.59359,-54.27349
2022-08-27 06:14:00+00:00,251.0,2.73,251.0,3.19,12.41,47.59359,-54.27349
2022-08-27 06:24:00+00:00,268.0,2.36,266.0,2.85,12.41,47.59359,-54.27349
2022-08-27 06:34:00+00:00,283.0,2.62,285.0,3.26,12.41,47.59359,-54.27349
2022-08-27 06:44:00+00:00,248.0,3.89,256.0,4.36,12.41,47.59359,-54.27349
2022-08-27 06:54:00+00:00,253.0,3.01,253.0,3.39,12.41,47.59359,-54.27349
2022-08-27 07:04:00+00:00,249.0,3.61,252.0,4.14,12.41,47.59359,-54.27349
2022-08-27 07:14:00+00:00,257.0,4.72,258.0,5.19,12.41,47.59359,-54.27349
2022-08-27 07:24:00+00:00,261.0,3.85,261.0,4.28,12.41,47.59359,-54.27349
2022-08-27 07:34:00+00:00,254.0,4.33,255.0,4.84,12.41,47.59359,-54.27349
2022-08-27 07:44:00+00:00,248.0,3.81,249.0,4.24,12.41,47.59359,-54.27349
2022-08-27 07:54:00+00:00,254.0,4.03,257.0,4.49,12.41,47.59359,-54.27349
2022-08-27 08:04:00+00:00,270.0,3.31,270.0,3.86,12.41,47.59359,-54.27349
2022-08-27 08:14:00+00:00,275.0,3.16,272.0,3.67,12.41,47.59359,-54.27349
2022-08-27 08:24:00+00:00,263.0,3.09,263.0,3.59,12.41,47.59359,-54.27349
2022-08-27 08:34:00+00:00,265.0,2.01,270.0,2.54,12.41,47.59359,-54.27349
2022-08-27 08:44:00+00:00,241.0,0.85,290.0,1.33,12.41,47.59359,-54.27349
2022-08-27 08:54:00+00:00,281.0,1.16,277.0,1.84,12.41,47.59359,-54.27349
2022-08-27 09:04:00+00:00,223.0,1.08,226.0,1.37,12.41,47.59359,-54.27349
2022-08-27 09:14:00+00:00,225.0,1.88,222.0,2.22,12.33,47.59359,-54.27349
2022-08-27 09:24:00+00:00,211.0,2.0,213.0,2.19,12.33,47.59359,-54.27349
2022-08-27 09:34:00+00:00,219.0,2.47,228.0,2.8,12.33,47.59359,-54.27349
2022-08-27 09:44:00+00:00,241.0,3.58,243.0,3.84,12.33,47.59359,-54.27349
2022-08-27 09:54:00+00:00,234.0,2.36,235.0,2.93,12.33,47.59359,-54.27349
2022-08-27 10:04:00+00:00,235.0,2.28,241.0,2.6,12.33,47.59359,-54.27349
2022-08-27 10:14:00+00:00,231.0,1.93,233.0,2.1,13.13,47.59359,-54.27349
2022-08-27 10:24:00+00:00,203.0,1.99,199.0,2.41,13.13,47.59359,-54.27349
2022-08-27 10:34:00+00:00,188.0,2.31,187.0,2.85,13.13,47.59359,-54.27349
2022-08-27 10:44:00+00:00,194.0,2.5,196.0,2.78,13.13,47.59359,-54.27349
2022-08-27 10:54:00+00:00,191.0,3.03,193.0,3.53,13.13,47.59359,-54.27349
2022-08-27 11:04:00+00:00,187.0,3.17,188.0,3.47,13.13,47.59359,-54.27349
2022-08-27 11:14:01+00:00,180.0,3.02,179.0,3.49,13.68,47.59359,-54.27349
2022-08-27 11:24:01+00:00,177.0,3.41,180.0,3.94,13.68,47.59359,-54.27349
2022-08-27 11:34:01+00:00,174.0,2.71,174.0,3.06,13.68,47.59359,-54.27349
2022-08-27 11:44:01+00:00,198.0,2.8,197.0,3.3,13.68,47.59359,-54.27349
2022-08-27 11:54:01+00:00,185.0,3.2,185.0,3.52,13.68,47.59359,-54.27349
2022-08-27 12:04:01+00:00,203.0,3.68,203.0,3.98,13.68,47.59359,-54.27349
2022-08-27 12:14:00+00:00,204.0,3.44,198.0,4.07,13.68,47.59359,-54.27349
2022-08-27 12:24:00+00:00,201.0,4.77,203.0,5.14,13.68,47.59359,-54.27349
2022-08-27 12:34:00+00:00,206.0,5.63,209.0,6.12,13.68,47.59359,-54.27349
2022-08-27 12:44:00+00:00,196.0,5.73,200.0,6.29,13.68,47.59359,-54.27349
2022-08-27 12:54:00+00:00,196.0,6.78,198.0,7.51,13.68,47.59359,-54.27349
2022-08-27 13:04:00+00:00,203.0,6.88,201.0,8.03,13.68,47.59359,-54.27349
2022-08-27 13:14:00+00:00,202.0,6.95,199.0,7.77,14.24,47.59359,-54.27349
2022-08-27 13:24:00+00:00,203.0,7.1,204.0,7.75,14.24,47.59359,-54.27349
2022-08-27 13:34:00+00:00,211.0,7.75,214.0,8.64,14.24,47.59359,-54.27349
2022-08-27 13:44:00+00:00,213.0,8.34,216.0,9.45,14.24,47.59359,-54.27349
2022-08-27 13:54:00+00:00,214.0,9.47,212.0,10.87,14.24,47.59359,-54.27349
2022-08-27 14:04:00+00:00,212.0,9.43,211.0,11.43,14.24,47.59359,-54.27349
2022-08-27 14:14:01+00:00,205.0,9.73,209.0,10.8,13.68,47.59359,-54.27349
2022-08-27 14:24:01+00:00,203.0,9.19,207.0,10.6,13.68,47.59359,-54.27349
2022-08-27 14:34:01+00:00,200.0,8.34,206.0,9.3,13.68,47.59359,-54.27349
2022-08-27 14:44:01+00:00,201.0,8.45,199.0,9.19,13.68,47.59359,-54.27349
2022-08-27 14:54:01+00:00,206.0,9.34,208.0,10.56,13.68,47.59359,-54.27349
2022-08-27 15:04:01+00:00,208.0,8.86,206.0,10.18,13.68,47.59359,-54.27349
2022-08-27 15:14:00+00:00,208.0,9.4,203.0,10.49,13.68,47.59359,-54.27349
2022-08-27 15:24:00+00:00,211.0,8.95,209.0,11.24,13.68,47.59359,-54.27349
2022-08-27 15:34:00+00:00,211.0,9.34,207.0,10.71,13.68,47.59359,-54.27349
2022-08-27 15:44:00+00:00,216.0,8.69,216.0,9.89,13.68,47.59359,-54.27349
2022-08-27 15:54:00+00:00,217.0,8.49,225.0,9.85,13.68,47.59359,-54.27349
2022-08-27 16:04:00+00:00,216.0,10.06,211.0,11.52,13.68,47.59359,-54.27349
2022-08-27 16:14:00+00:00,215.0,8.74,213.0,9.95,13.68,47.59359,-54.27349
2022-08-27 16:24:00+00:00,215.0,8.9,219.0,10.17,13.68,47.59359,-54.27349
2022-08-27 16:34:00+00:00,213.0,9.06,211.0,10.19,13.68,47.59359,-54.27349
2022-08-27 16:44:00+00:00,214.0,9.64,215.0,10.64,13.68,47.59359,-54.27349
2022-08-27 16:54:00+00:00,211.0,9.33,211.0,10.66,13.68,47.59359,-54.27349
2022-08-27 17:04:00+00:00,212.0,9.39,212.0,11.01,13.68,47.59359,-54.27349
2022-08-27 17:14:00+00:00,213.0,9.85,214.0,10.87,13.84,47.59359,-54.27349
2022-08-27 17:24:00+00:00,210.0,10.15,207.0,11.14,13.84,47.59359,-54.27349
2022-08-27 17:34:00+00:00,211.0,10.18,215.0,11.73,13.84,47.59359,-54.27349
2022-08-27 17:44:00+00:00,210.0,10.62,207.0,12.24,13.84,47.59359,-54.27349
2022-08-27 17:54:00+00:00,212.0,9.03,215.0,10.02,13.84,47.59359,-54.27349
2022-08-27 18:04:00+00:00,212.0,8.99,212.0,10.42,13.84,47.59359,-54.27349
2022-08-27 18:14:00+00:00,211.0,9.15,211.0,10.19,13.44,47.59359,-54.27349
2022-08-27 18:24:00+00:00,209.0,9.04,205.0,10.01,13.44,47.59359,-54.27349
2022-08-27 18:34:00+00:00,214.0,6.7,211.0,7.72,13.44,47.59359,-54.27349
2022-08-27 18:44:00+00:00,208.0,8.25,207.0,9.06,13.44,47.59359,-54.27349
2022-08-27 18:54:00+00:00,212.0,8.09,210.0,9.29,13.44,47.59359,-54.27349
2022-08-27 19:04:00+00:00,214.0,9.08,220.0,10.35,13.44,47.59359,-54.27349
2022-08-27 19:14:01+00:00,214.0,9.24,215.0,11.31,13.68,47.59359,-54.27349
2022-08-27 19:24:01+00:00,214.0,8.69,212.0,9.8,13.68,47.59359,-54.27349
2022-08-27 19:34:01+00:00,213.0,9.4,211.0,11.17,13.68,47.59359,-54.27349
2022-08-27 19:44:01+00:00,216.0,8.55,224.0,9.93,13.68,47.59359,-54.27349
2022-08-27 19:54:01+00:00,212.0,8.61,210.0,9.69,13.68,47.59359,-54.27349
2022-08-27 20:04:01+00:00,213.0,8.18,213.0,8.88,13.68,47.59359,-54.27349
2022-08-27 20:14:00+00:00,216.0,8.46,217.0,9.74,13.53,47.59359,-54.27349
2022-08-27 20:24:00+00:00,209.0,8.08,208.0,9.11,13.53,47.59359,-54.27349
2022-08-27 20:34:00+00:00,219.0,7.61,222.0,8.38,13.53,47.59359,-54.27349
2022-08-27 20:44:00+00:00,220.0,7.27,219.0,8.46,13.53,47.59359,-54.27349
2022-08-27 20:54:00+00:00,227.0,5.88,229.0,6.79,13.53,47.59359,-54.27349
2022-08-27 21:04:00+00:00,227.0,5.84,234.0,6.92,13.53,47.59359,-54.27349
2022-08-27 21:14:00+00:00,228.0,6.36,228.0,7.64,13.29,47.59359,-54.27349
2022-08-27 21:24:00+00:00,223.0,6.29,227.0,7.3,13.29,47.59359,-54.27349
2022-08-27 21:34:00+00:00,248.0,7.46,252.0,8.97,13.29,47.59359,-54.27349
2022-08-27 21:44:00+00:00,238.0,7.26,241.0,8.49,13.29,47.59359,-54.27349
2022-08-27 21:54:00+00:00,232.0,5.23,237.0,6.04,13.29,47.59359,-54.27349
2022-08-27 22:04:00+00:00,239.0,6.51,244.0,8.2,13.29,47.59359,-54.27349
2022-08-27 22:14:00+00:00,236.0,6.71,237.0,7.58,13.05,47.59359,-54.27349
2022-08-27 22:24:00+00:00,249.0,6.19,245.0,6.88,13.05,47.59359,-54.27349
2022-08-27 22:34:00+00:00,251.0,5.38,248.0,5.91,13.05,47.59359,-54.27349
2022-08-27 22:44:00+00:00,245.0,4.53,247.0,5.0,13.05,47.59359,-54.27349
2022-08-27 22:54:00+00:00,249.0,5.4,252.0,5.9,13.05,47.59359,-54.27349
2022-08-27 23:04:00+00:00,253.0,4.65,254.0,4.99,13.05,47.59359,-54.27349
2022-08-27 23:14:00+00:00,258.0,4.29,259.0,4.61,12.49,47.59359,-54.27349
2022-08-27 23:24:00+00:00,250.0,4.49,251.0,4.98,12.49,47.59359,-54.27349
2022-08-27 23:34:00+00:00,248.0,4.59,248.0,4.95,12.49,47.59359,-54.27349
2022-08-27 23:44:00+00:00,245.0,4.18,250.0,4.64,12.49,47.59359,-54.27349
2022-08-27 23:54:00+00:00,242.0,4.15,240.0,4.53,12.49,47.59359,-54.27349
